Location: Newark
(45.2500°N, 7.5833°E)
Time: 19:17:36
(UTC+00:00)

SR - Pass Details

Date: 04 February 2020
Orbit: 575 x 880 km, 66.7° (Epoch: 23 February)

Event Time Altitude Azimuth Distance (km) Brightness Sun altitude
Rises 19:07:19 0° 206° (SSW) 3,415 ? -26.1°
Reaches altitude 10° 19:09:46 10° 205° (SSW) 2,504 ? -26.5°
Enters shadow 19:15:25 78° 147° (SSE) 905 ? -27.5°
